Miscellaneous Local Product
Issued by NWS North Platte, NE

Home | Current Version | Previous Version | Text Only | Print | Product List | Glossary On
Versions: 1 2 3 4 5 6 7 8 9 10 11 12 13 14 15 16 17 18 19 20 21 22 23 24 25 26 27 28 29 30 31 32 33 34 35 36 37 38 39 40 41 42 43 44 45 46 47 48 49 50
475
AXUS43 KLBF 072010
MISLBF


WESTERN AND NORTH CENTRAL NEBRASKA HOURLY WEATHER ROUNDUP
NATIONAL WEATHER SERVICE NORTH PLATTE NE
200 PM CST SUN FEB 07 2016

NOTE: "FAIR" INDICATES FEW OR NO CLOUDS BELOW 12,000 FEET WITH NO
SIGNIFICANT WEATHER AND/OR OBSTRUCTIONS TO VISIBILITY.

NOTE: STATIONS NOT REPORTING VARIABLES SUCH AS SKY/WEATHER OR
PRESSURE ARE PROVIDED BY THE NEBRASKA DEPARTMENT OF
ROADS...RAWS...AND APRS NETWORKS...AND ARE NOT UNDER
NATIONAL WEATHER SERVICE QUALITY CONTROL.

...OBSERVATIONS IN AND NEAR THE EASTERN PANHANDLE OF NEBRASKA...

CITY           SKY/WX    TMP DP  RH WIND       PRES   REMARKS
PINE RIDGE     MOSUNNY   39   5  24 NW30G47   30.17F WCI  27
CHADRON        SUNNY     39  14  36 NW29G44   30.24F WCI  27
ALLIANCE       SUNNY     33  16  49 NW33G43   30.22F WCI  18
SIDNEY         PTSUNNY   33  18  53 NW31G40   30.26F WCI  19
BIG SPRINGS      N/A     36  24  63 NW14        N/A  WCI  27
$$

...OBSERVATIONS IN NORTH CENTRAL NEBRASKA...

CITY           SKY/WX    TMP DP  RH WIND       PRES   REMARKS
VALENTINE      PTSUNNY   36  16  44 NW28G48   30.05S WCI  23
THEDFORD       PTSUNNY   41  13  32 NW44G63   30.08F
AINSWORTH      CLOUDY    38  15  39 NW39G52   30.04F WCI  24
O`NEILL        LGT SNOW  33  29  86 NW32G41   30.00S WCI  19
ORD            PTSUNNY   40  18  41 NW38G52   30.02F WCI  27
BROKEN BOW     PTSUNNY   40  14  34 NW43G56   30.06F WCI  26
BUTTE            N/A     33  27  80 W35G52      N/A  WCI  18
CHAMBERS         N/A     35  27  74 W17G26      N/A  WCI  25
EWING            N/A     35  29  79 NW21G33     N/A  WCI  24
$$

...OBSERVATIONS IN SOUTHWEST NEBRASKA AND FAR NORTHEAST COLORADO...

CITY           SKY/WX    TMP DP  RH WIND       PRES   REMARKS
WRAY           MOCLDY    37  20  50 NW26G32   30.27F WCI  26
HOLYOKE        FAIR      37  23  56 NW24G31   30.27S WCI  26
IMPERIAL       SUNNY     38  21  50 NW22G33   30.24F WCI  27
OGALLALA       MOSUNNY   37  18  47 NW26G35   30.21F WCI  25
NORTH PLATTE   SUNNY     39  19  44 NW26G39   30.15F WCI  28
MCCOOK         MOSUNNY   40  23  50 NW24G35   30.20F WCI  29
LEXINGTON      SUNNY     40  20  43 NW31G40   30.13F WCI  29
PAXTON           N/A     37  24  60 W14         N/A  WCI  28
STAPLETON        N/A     39  17  41 W7G15       N/A  WCI  34
GOTHENBURG       N/A     40  17  40 W14         N/A  WCI  32
CALLAWAY         N/A     39  20  47 NW26        N/A  WCI  28
$$

...OBSERVATIONS IN CENTRAL LINCOLN COUNTY AREA...

CITY           SKY/WX    TMP DP  RH WIND       PRES   REMARKS
N.P. AIRPORT   SUNNY     39  19  44 NW26G39   30.15F WCI  28
N.P. DOWNTOWN    N/A     39  20  46 W15G26      N/A  WCI  30
N.P. SOUTHEAST   N/A     40  18  41 NW12G23     N/A  WCI  33
N.P. HILLCREST   N/A     39  18  43 NW29G41     N/A  WCI  27
$$

...SOME OBSERVATIONS FROM AROUND THE REGION...

CITY           SKY/WX    TMP DP  RH WIND       PRES   REMARKS
DENVER         PTSUNNY   29  21  72 SE12      30.31F WCI  19
LARAMIE        CLOUDY    26  20  77 N23G32    30.27F WCI  11
CHEYENNE       SUNNY     30  16  56 NW30G44   30.25F WCI  15
SCOTTSBLUFF    CLOUDY    34  14  43 NW31G41   30.29F WCI  20
RAPID CITY     SUNNY     39   7  26 NW52G64   30.15S WCI  24
BISMARCK       CLOUDY    34  19  54 NW39G54   29.97R WCI  19
PIERRE         CLOUDY    38  21  50 NW35G49   29.97R WCI  25
WINNER         FLURRIES  38  21  50 NW35G59   29.99F WCI  25
SIOUX FALLS    FLURRIES  35  29  78 NW21G35   29.81S WCI  24
OMAHA          MOSUNNY   44  24  45 NW22G39   29.94F
GRAND ISLAND   CLOUDY    41  20  43 NW25G41   30.05F
KANSAS CITY    CLOUDY    50  27  40 NW15G28   30.01F
WICHITA        MOSUNNY   57  21  24 N17G30    30.14F
OKLAHOMA CITY  MOSUNNY   57  27  31 N20       30.14F
LIBERAL        SUNNY     52  19  28 N22G28    30.26F
HAYS           PTSUNNY   45  25  45 W18       30.21F
GOODLAND       MOSUNNY   37  21  52 NW22G32   30.27F WCI  26
$$




USA.gov is the U.S. government's official web portal to all federal, state and local government web resources and services.